TimeCDT,TemperatureF,Dew PointF,Humidity,Sea Level PressureIn,VisibilityMPH,Wind Direction,Wind SpeedMPH,Gust SpeedMPH,PrecipitationIn,Events,Conditions,WindDirDegrees,DateUTC
12:15 AM,54.1,49.1,83,30.08,10.0,Calm,Calm,-,N/A,,Clear,0,2014-05-05 05:15:00
12:35 AM,52.7,49.5,89,30.08,10.0,Calm,Calm,-,N/A,,Clear,0,2014-05-05 05:35:00
12:55 AM,52.0,49.1,90,30.08,10.0,Calm,Calm,-,N/A,,Clear,0,2014-05-05 05:55:00
1:15 AM,52.0,49.5,91,30.08,10.0,Calm,Calm,-,N/A,,Clear,0,2014-05-05 06:15:00
1:35 AM,52.3,49.8,91,30.07,10.0,Calm,Calm,-,N/A,,Clear,0,2014-05-05 06:35:00
1:55 AM,52.3,50.2,92,30.07,10.0,Calm,Calm,-,N/A,,Clear,0,2014-05-05 06:55:00
2:15 AM,52.7,50.2,91,30.06,10.0,Calm,Calm,-,N/A,,Clear,0,2014-05-05 07:15:00
2:35 AM,52.2,50.4,94,30.06,10.0,Calm,Calm,-,N/A,,Clear,0,2014-05-05 07:35:00
2:55 AM,52.3,50.9,95,30.05,10.0,Calm,Calm,-,N/A,,Clear,0,2014-05-05 07:55:00
3:15 AM,51.8,50.0,94,30.05,10.0,Calm,Calm,-,N/A,,Clear,0,2014-05-05 08:15:00
3:35 AM,52.2,49.6,91,30.05,10.0,Calm,Calm,-,N/A,,Clear,0,2014-05-05 08:35:00
3:55 AM,52.2,50.9,95,30.04,7.0,Calm,Calm,-,N/A,,Clear,0,2014-05-05 08:55:00
4:15 AM,52.9,52.0,97,30.04,10.0,West,3.5,-,N/A,,Clear,270,2014-05-05 09:15:00
4:35 AM,55.4,54.0,95,30.03,10.0,Calm,Calm,-,N/A,,Clear,0,2014-05-05 09:35:00
4:55 AM,54.1,53.2,97,30.03,7.0,Calm,Calm,-,N/A,,Clear,0,2014-05-05 09:55:00
5:15 AM,54.1,53.2,97,30.03,10.0,Calm,Calm,-,N/A,,Clear,0,2014-05-05 10:15:00
5:35 AM,52.5,51.6,97,30.03,5.0,Calm,Calm,-,N/A,,Clear,0,2014-05-05 10:35:00
5:55 AM,51.3,50.2,96,30.03,10.0,Calm,Calm,-,N/A,,Clear,0,2014-05-05 10:55:00
6:15 AM,51.1,50.0,96,30.03,10.0,Calm,Calm,-,N/A,,Clear,0,2014-05-05 11:15:00
6:35 AM,50.9,49.3,94,30.04,10.0,Calm,Calm,-,N/A,,Mostly Cloudy,0,2014-05-05 11:35:00
6:55 AM,50.9,49.8,96,30.04,7.0,Calm,Calm,-,N/A,,Mostly Cloudy,0,2014-05-05 11:55:00
7:15 AM,51.3,50.4,97,30.04,7.0,Calm,Calm,-,N/A,,Mostly Cloudy,0,2014-05-05 12:15:00
7:35 AM,53.4,52.5,97,30.05,7.0,Calm,Calm,-,N/A,,Clear,0,2014-05-05 12:35:00
7:55 AM,57.7,57.0,97,30.05,7.0,Calm,Calm,-,N/A,,Clear,0,2014-05-05 12:55:00
8:15 AM,61.5,59.7,94,30.05,10.0,South,4.6,-,N/A,,Clear,190,2014-05-05 13:15:00
8:35 AM,64.6,61.0,88,30.05,10.0,South,6.9,-,N/A,,Clear,190,2014-05-05 13:35:00
8:55 AM,67.5,61.3,81,30.05,10.0,SSW,8.1,-,N/A,,Clear,200,2014-05-05 13:55:00
9:15 AM,70.2,61.7,74,30.05,10.0,SW,8.1,-,N/A,,Clear,220,2014-05-05 14:15:00
9:35 AM,72.0,61.5,70,30.06,10.0,SSW,10.4,19.6,N/A,,Scattered Clouds,200,2014-05-05 14:35:00
9:55 AM,74.5,61.5,64,30.06,10.0,SSW,11.5,18.4,N/A,,Mostly Cloudy,210,2014-05-05 14:55:00
10:15 AM,73.9,61.0,64,30.06,10.0,SSW,9.2,18.4,N/A,,Scattered Clouds,210,2014-05-05 15:15:00
10:35 AM,75.4,60.6,60,30.06,10.0,SSW,11.5,18.4,N/A,,Clear,210,2014-05-05 15:35:00
10:55 AM,76.3,60.4,58,30.06,10.0,SSW,9.2,16.1,N/A,,Clear,210,2014-05-05 15:55:00
11:15 AM,77.4,60.1,55,30.05,10.0,SSW,9.2,19.6,N/A,,Clear,210,2014-05-05 16:15:00
11:35 AM,77.9,60.6,55,30.05,10.0,SSW,9.2,-,N/A,,Clear,200,2014-05-05 16:35:00
11:55 AM,79.0,60.4,53,30.04,10.0,South,9.2,16.1,N/A,,Clear,190,2014-05-05 16:55:00
12:15 PM,79.3,59.5,51,30.04,10.0,South,11.5,19.6,N/A,,Clear,190,2014-05-05 17:15:00
12:35 PM,80.2,60.4,51,30.03,10.0,SSW,11.5,18.4,N/A,,Clear,200,2014-05-05 17:35:00
12:55 PM,81.1,60.6,50,30.02,10.0,South,10.4,-,N/A,,Clear,190,2014-05-05 17:55:00
1:15 PM,82.2,61.7,50,30.01,10.0,South,9.2,-,N/A,,Clear,190,2014-05-05 18:15:00
1:35 PM,82.6,61.5,49,30.00,10.0,South,11.5,19.6,N/A,,Clear,170,2014-05-05 18:35:00
1:55 PM,84.6,61.5,46,29.99,10.0,SSW,13.8,-,N/A,,Clear,200,2014-05-05 18:55:00
2:15 PM,84.2,61.5,46,29.98,10.0,SSE,6.9,-,N/A,,Clear,160,2014-05-05 19:15:00
2:35 PM,84.2,60.6,45,29.97,10.0,SSW,11.5,17.3,N/A,,Clear,200,2014-05-05 19:35:00
2:55 PM,85.1,60.8,44,29.97,10.0,SSE,9.2,16.1,N/A,,Clear,150,2014-05-05 19:55:00
3:15 PM,84.4,61.5,46,29.96,10.0,South,13.8,19.6,N/A,,Clear,190,2014-05-05 20:15:00
3:35 PM,84.7,62.2,47,29.95,10.0,South,12.7,20.7,N/A,,Clear,180,2014-05-05 20:35:00
3:55 PM,84.6,63.3,49,29.94,10.0,SE,4.6,-,N/A,,Clear,140,2014-05-05 20:55:00
4:15 PM,84.0,64.9,53,29.93,10.0,SSE,8.1,17.3,N/A,,Clear,150,2014-05-05 21:15:00
4:35 PM,82.0,63.5,53,29.93,10.0,SSE,10.4,19.6,N/A,,Clear,160,2014-05-05 21:35:00
4:55 PM,81.7,64.0,55,29.93,10.0,SSE,9.2,23.0,N/A,,Clear,160,2014-05-05 21:55:00
5:15 PM,81.0,63.9,56,29.93,10.0,SSE,10.4,16.1,N/A,,Clear,160,2014-05-05 22:15:00
5:35 PM,80.1,63.5,57,29.92,10.0,South,11.5,18.4,N/A,,Clear,170,2014-05-05 22:35:00
5:55 PM,79.3,63.3,58,29.92,10.0,SSE,8.1,21.9,N/A,,Clear,160,2014-05-05 22:55:00
6:15 PM,78.3,62.8,59,29.91,10.0,SSE,10.4,18.4,N/A,,Clear,160,2014-05-05 23:15:00
6:35 PM,77.5,62.8,60,29.92,10.0,SSE,9.2,-,N/A,,Clear,160,2014-05-05 23:35:00
6:55 PM,76.1,62.6,63,29.92,10.0,SSE,8.1,-,N/A,,Clear,160,2014-05-05 23:55:00
7:15 PM,74.5,62.2,66,29.92,10.0,SSE,10.4,16.1,N/A,,Clear,160,2014-05-06 00:15:00
7:35 PM,72.9,62.1,69,29.92,10.0,South,10.4,16.1,N/A,,Clear,170,2014-05-06 00:35:00
7:55 PM,71.2,61.9,72,29.93,10.0,South,11.5,-,N/A,,Clear,170,2014-05-06 00:55:00
8:15 PM,69.8,61.7,75,29.93,10.0,South,8.1,-,N/A,,Clear,170,2014-05-06 01:15:00
8:35 PM,68.9,61.7,78,29.93,10.0,South,6.9,-,N/A,,Clear,170,2014-05-06 01:35:00
8:55 PM,68.2,61.7,80,29.93,10.0,South,6.9,-,N/A,,Clear,170,2014-05-06 01:55:00
9:15 PM,67.5,61.7,82,29.93,10.0,South,8.1,-,N/A,,Clear,170,2014-05-06 02:15:00
9:35 PM,67.3,61.7,82,29.94,10.0,South,5.8,-,N/A,,Clear,170,2014-05-06 02:35:00
9:55 PM,66.6,61.9,85,29.94,10.0,South,5.8,-,N/A,,Clear,170,2014-05-06 02:55:00
10:15 PM,66.2,61.9,86,29.95,10.0,South,4.6,-,N/A,,Clear,170,2014-05-06 03:15:00
10:35 PM,64.9,61.7,89,29.95,10.0,South,4.6,-,N/A,,Scattered Clouds,170,2014-05-06 03:35:00
10:55 PM,64.9,61.9,90,29.96,10.0,South,3.5,-,N/A,,Mostly Cloudy,180,2014-05-06 03:55:00
11:15 PM,65.3,62.1,89,29.96,10.0,South,3.5,-,N/A,,Overcast,180,2014-05-06 04:15:00
11:35 PM,65.3,62.2,90,29.96,10.0,South,6.9,-,N/A,,Overcast,190,2014-05-06 04:35:00
11:55 PM,65.3,62.1,89,29.96,10.0,South,4.6,-,N/A,,Mostly Cloudy,170,2014-05-06 04:55:00